GFSFLT1_con_lsi_159.txt.gz
Lid_Strength_Index
10 12 13 12 8 9 7 5 6 6 5 5 6 4 3 1 1 0 0 -0 -0 -1 -1 -1 -1 -1 -1 -1 -1 -1 -1 -1
13 13 10 8 8 7 7 6 5 5 7 4 2 3 2 1 0 1 0 -0 -0 -1 -1 -1 -1 -1 -1 -1 -1 -1 -1 -1
13 12 9 7 7 7 7 6 6 5 7 6 3 1 1 1 0 1 1 -0 -0 -1 -1 -1 -1 -1 -1 -1 -1 -1 -1 -1
12 12 9 6 7 7 6 5 6 7 8 6 2 2 2 1 1 0 1 0 -0 -1 -1 -1 -1 -1 -1 -1 -1 -1 -1 -1
12 11 10 8 6 8 7 6 6 5 8 6 3 2 2 1 1 0 0 0 -0 -0 -1 -1 -1 -1 -1 -1 -1 -1 -1 -1
11 11 11 8 6 6 7 6 4 4 8 8 4 2 1 1 1 1 1 0 0 0 -0 -0 -0 -1 -1 -1 -1 -1 -1 -1
12 11 10 9 9 5 5 6 5 5 5 4 2 1 2 2 2 2 1 1 0 0 0 0 0 -0 -1 -1 -1 -1 -1 -1
10 9 9 8 9 8 5 7 7 6 4 3 3 3 3 3 3 3 2 1 1 0 0 0 -0 0 0 -0 0 0 0 0
9 8 7 7 9 8 9 8 7 8 6 4 3 4 4 3 3 3 2 1 1 0 0 0 0 0 0 0 0 0 0 0
8 7 7 8 8 9 8 6 5 5 4 4 4 4 4 3 3 2 2 1 1 0 0 1 0 0 0 0 -0 0 0 0
7 7 7 7 7 9 9 6 4 4 4 4 4 4 3 3 2 2 2 1 1 0 0 0 1 1 0 0 0 1 0 -0
7 8 7 8 8 8 9 6 5 5 5 4 4 4 3 3 3 2 2 2 1 1 0 1 1 1 1 0 0 0 0 -0
8 8 8 7 9 8 7 5 6 6 5 4 4 4 4 3 3 2 2 1 1 1 1 1 1 0 0 0 0 0 -0 0
10 8 7 8 11 7 6 5 7 6 6 5 5 4 3 3 2 2 2 2 1 1 1 1 1 1 1 1 0 1 0 0
11 8 8 8 11 8 6 5 6 7 6 6 7 4 3 3 2 2 2 2 2 1 1 1 1 0 1 0 1 1 0 0
12 9 8 9 10 8 6 6 7 7 6 6 6 5 3 2 2 2 2 1 1 1 1 1 1 1 1 1 1 0 0 0
10 8 9 9 9 8 7 7 8 7 7 7 6 4 3 2 2 2 2 2 2 2 1 1 1 2 2 2 1 1 1 0
9 8 9 9 10 8 7 7 8 8 7 7 6 5 4 3 3 4 2 2 2 2 1 1 1 1 1 1 1 1 2 2
11 9 8 9 10 10 8 7 8 7 7 6 6 6 5 4 3 3 3 2 2 2 1 1 1 1 1 1 2 3 4 4
9 10 14 9 14 11 9 8 9 8 8 7 6 5 5 4 4 3 5 4 2 2 1 1 1 2 2 3 4 4 4 4

GFSFLT1_con_lsi_162.txt.gz
Lid_Strength_Index
12 13 14 13 10 8 7 6 6 6 5 5 7 4 3 1 1 0 0 -0 -0 -1 -1 -1 -1 -1 -1 -1 -1 -1 -1 -1
14 14 11 9 10 8 7 6 5 6 7 4 2 3 2 1 0 1 0 -0 -0 -1 -1 -1 -1 -1 -1 -1 -1 -1 -1 -1
14 13 11 8 8 8 8 7 6 5 7 6 3 2 1 1 1 1 0 -0 -0 -1 -1 -1 -1 -1 -1 -1 -1 -1 -1 -1
14 12 10 8 7 8 8 7 6 7 7 7 2 2 2 1 1 0 1 -0 -0 -1 -1 -1 -1 -1 -1 -1 -1 -1 -1 -1
14 11 10 10 7 8 8 7 7 6 9 6 4 2 2 1 1 0 0 0 -0 -0 -1 -1 -1 -1 -1 -1 -1 -1 -1 -1
14 13 12 10 9 8 8 7 4 4 9 8 4 2 1 1 1 1 0 0 0 -0 -0 -0 -0 -1 -1 -1 -1 -1 -1 -1
14 13 11 10 12 8 4 6 6 5 5 4 2 2 2 2 2 2 1 1 0 0 -0 -0 -0 -0 -1 -1 -1 -1 -1 -1
12 11 13 10 11 9 7 7 7 6 4 3 3 3 4 4 4 3 2 2 1 1 1 0 -0 0 0 -0 0 0 0 0
11 10 10 10 11 9 7 10 7 7 6 4 3 3 4 3 3 3 2 1 2 1 1 1 0 1 0 1 0 0 0 0
10 9 10 10 9 10 9 9 5 5 4 4 4 4 4 4 3 3 2 2 1 1 1 1 0 0 0 0 0 0 0 0
9 9 9 8 9 11 10 9 4 4 4 4 4 4 3 3 2 3 3 2 1 0 1 0 0 0 0 0 0 0 0 -0
9 10 10 9 9 9 10 7 5 5 5 4 4 4 4 3 3 3 3 2 1 1 1 1 1 0 0 1 1 1 1 1
10 9 10 9 10 10 9 8 6 6 5 5 4 4 4 3 3 3 2 1 1 1 0 1 2 1 0 1 1 1 1 0
11 10 9 9 13 9 9 9 6 6 6 5 5 4 3 3 3 2 3 2 1 1 1 1 1 1 1 1 1 1 0 -0
12 10 10 10 13 9 8 10 8 7 6 6 5 4 3 3 2 2 2 2 1 1 1 1 1 0 1 1 1 1 -0 0
14 12 11 12 12 10 8 8 8 7 6 6 6 5 3 3 2 2 2 2 1 1 1 1 1 1 1 2 2 1 1 -0
12 10 11 12 11 10 9 9 8 8 7 7 6 4 3 3 2 3 2 3 3 1 1 1 1 2 2 2 1 1 0 1
11 9 11 11 11 11 9 9 7 8 8 7 6 5 4 3 3 2 3 2 1 1 1 1 2 2 2 1 1 1 1 3
12 10 10 11 12 11 8 9 8 7 7 6 6 6 5 4 3 3 3 4 3 3 5 1 1 1 1 1 3 4 5 5
10 12 15 11 17 13 10 11 9 9 8 7 6 5 5 4 4 3 3 3 2 3 2 1 1 1 2 2 4 5 5 6

GFSFLT1_con_lsi_165.txt.gz
Lid_Strength_Index
12 14 14 14 10 9 8 6 6 7 5 6 7 4 4 2 1 0 0 -0 -0 -1 -1 -1 -1 -1 -1 -1 -1 -1 -1 -1
13 15 13 10 10 8 8 6 6 6 7 5 3 3 2 1 0 1 0 0 -0 -1 -1 -1 -1 -1 -1 -1 -1 -1 -1 -1
14 13 12 9 8 9 9 7 6 6 8 7 3 2 1 1 1 1 0 0 -0 -1 -1 -1 -1 -1 -1 -1 -1 -1 -1 -1
14 13 10 10 8 9 9 9 6 7 8 7 3 3 2 1 1 0 1 0 -0 -1 -1 -1 -1 -1 -1 -1 -1 -1 -1 -1
15 12 11 10 8 8 9 9 7 6 9 6 4 2 1 1 1 0 0 0 -0 -0 -1 -1 -1 -1 -1 -1 -1 -1 -1 -1
14 13 12 9 10 10 9 8 4 4 9 9 4 2 1 1 1 1 0 1 0 -0 0 0 -0 -1 -1 -1 -1 -1 -1 -1
15 14 12 10 12 10 5 6 6 5 5 4 2 2 2 3 2 2 1 1 1 0 -0 0 0 -0 -1 -1 -1 -1 -1 -1
13 12 13 11 9 11 7 8 8 6 4 3 3 3 4 4 4 3 2 1 1 0 0 -0 -0 0 0 -0 0 0 0 0
12 12 11 11 10 9 9 10 8 7 6 4 4 4 4 4 3 3 2 1 1 0 0 0 0 -0 0 0 0 0 0 1
11 10 11 11 9 8 11 11 5 5 4 4 4 4 4 4 3 3 2 2 1 1 1 1 0 0 1 0 0 0 0 0
9 9 10 10 10 9 11 9 9 4 4 5 4 4 3 3 2 2 3 2 1 1 1 2 1 2 2 1 0 0 0 0
9 11 11 10 10 9 10 9 5 5 5 5 4 4 4 3 3 3 2 2 1 2 2 2 2 2 2 1 0 0 0 0
10 10 11 10 11 11 8 9 9 6 5 5 5 4 4 3 3 3 4 3 2 1 1 1 2 1 1 0 0 0 0 0
12 10 10 10 14 10 8 10 9 6 6 5 5 4 4 3 3 3 3 3 2 1 1 1 1 1 0 0 1 2 2 1
13 11 11 11 14 10 8 9 7 7 6 6 6 5 4 3 2 2 2 2 2 1 1 1 1 2 0 1 1 1 1 1
13 13 12 13 14 11 9 9 7 7 7 6 6 5 4 3 2 3 3 3 2 2 1 1 0 1 1 1 2 1 1 0
13 11 12 13 13 11 10 10 8 8 7 7 6 4 4 3 3 2 3 3 2 3 4 3 1 2 2 2 1 1 0 -0
12 10 13 13 13 11 10 10 8 8 8 7 6 5 4 4 4 3 3 3 2 2 2 3 2 1 2 1 1 1 2 3
13 11 12 13 14 12 10 9 8 8 7 6 6 6 5 4 4 3 4 3 2 2 2 2 2 1 0 2 3 4 5 5
11 13 16 12 17 14 11 11 10 9 8 7 6 6 5 5 4 3 3 2 2 2 2 1 1 1 2 2 4 4 4 4

GFSFLT1_con_lsi_168.txt.gz
Lid_Strength_Index
12 15 15 14 11 9 9 6 6 7 5 6 8 4 4 2 1 0 0 -0 -0 -1 -1 -1 -1 -1 -1 -1 -1 -1 -1 -1
12 15 13 11 10 9 8 6 6 6 8 5 3 4 2 1 0 1 0 -0 -0 -1 -1 -1 -1 -1 -1 -1 -1 -1 -1 -1
16 13 12 11 9 9 10 9 7 6 8 7 4 2 1 1 1 1 1 0 -0 -1 -1 -1 -1 -1 -1 -1 -1 -1 -1 -1
16 15 11 10 9 9 9 9 9 8 8 7 3 3 2 1 1 0 1 -0 -0 -1 -1 -1 -1 -1 -1 -1 -1 -1 -1 -1
16 13 12 10 9 10 9 11 10 6 9 6 4 2 1 1 1 0 0 0 0 -0 -0 -1 -1 -1 -1 -1 -1 -1 -1 -1
15 14 14 10 9 10 8 8 5 5 9 9 4 2 1 1 1 1 1 0 0 0 -0 0 -0 -1 -1 -1 -1 -1 -1 -1
16 14 13 11 10 10 6 7 6 5 5 4 3 2 2 3 2 2 1 1 0 0 -0 0 0 -0 -1 -1 -1 -1 -1 -1
14 12 12 12 11 9 8 8 8 7 4 3 3 3 4 4 4 3 2 1 0 0 0 0 -0 -0 0 -0 -0 -0 -0 -0
13 12 12 12 11 9 9 10 8 8 6 4 4 4 4 4 3 3 2 1 1 1 0 0 0 -0 -0 0 0 -0 -0 -0
12 11 12 12 10 10 10 11 8 5 5 4 5 5 4 4 3 3 2 2 1 1 0 0 -0 -0 -0 -0 -0 -0 -0 -0
9 10 11 10 11 10 10 9 9 10 5 5 5 4 3 3 3 2 3 2 1 0 0 1 0 -0 1 0 -0 -0 -0 -0
10 11 11 12 11 11 9 8 9 5 5 5 5 4 4 3 3 3 2 2 1 1 2 2 2 1 1 1 1 0 -0 -0
9 10 11 11 12 12 9 8 9 9 6 5 5 4 4 3 3 3 2 2 2 3 2 2 2 2 2 2 1 0 -0 -0
12 10 10 11 14 10 9 9 9 10 6 6 5 4 4 3 3 3 2 2 1 1 2 2 3 1 1 1 -0 -0 -0 -1
13 10 11 11 15 11 9 10 10 10 7 6 6 5 4 3 3 3 2 2 2 2 1 1 1 0 -0 -0 -0 -0 -0 1
14 13 12 12 14 12 10 10 9 8 7 7 6 5 4 3 3 2 2 2 1 1 1 1 0 1 0 0 -0 -0 0 0
12 11 13 15 12 11 11 11 10 9 8 7 6 4 4 3 2 3 3 2 2 3 2 2 1 2 2 2 1 0 0 -0
13 11 13 14 14 11 11 11 9 7 8 7 6 5 4 4 3 3 3 3 3 3 3 2 1 1 3 4 3 2 2 3
13 12 12 13 15 13 9 10 8 8 7 7 6 6 5 4 4 3 3 3 3 3 3 2 1 2 2 3 2 1 1 3
12 14 16 14 19 15 11 11 10 8 8 7 6 5 5 5 5 4 4 4 3 3 3 2 1 1 2 2 3 2 3 2

GFSFLT1_con_lsi_171.txt.gz
Lid_Strength_Index
7 10 11 10 8 7 7 6 6 6 4 5 7 4 3 1 0 -0 -0 -1 -1 -1 -1 -1 -1 -1 -1 -1 -1 -1 -1 -1
9 10 9 8 7 6 7 5 5 5 7 5 3 3 2 0 0 0 -0 -1 -1 -1 -1 -1 -1 -1 -1 -1 -1 -1 -1 -1
11 10 8 7 6 6 6 7 5 6 7 6 3 1 1 1 0 1 0 -1 -1 -1 -1 -1 -1 -1 -1 -1 -1 -1 -1 -1
13 12 9 6 6 6 6 6 6 6 7 6 2 2 1 0 0 0 0 -0 -1 -1 -1 -1 -1 -1 -1 -1 -1 -1 -1 -1
12 12 10 8 5 7 6 6 6 4 7 6 4 2 1 1 0 0 -0 -0 -1 -1 -1 -1 -1 -1 -1 -1 -1 -1 -1 -1
12 12 11 8 6 6 6 6 4 3 7 7 4 2 1 1 1 0 0 -0 -0 -1 -1 -1 -1 -1 -1 -1 -1 -1 -1 -1
12 12 10 8 7 5 5 6 4 4 5 4 2 2 2 2 2 1 1 0 -0 -0 -1 -1 -1 -1 -1 -1 -1 -1 -1 -1
10 9 9 8 7 6 6 5 5 5 4 3 3 3 4 3 3 2 2 1 0 -0 -0 -1 -1 -1 -1 -1 -1 -1 -1 -1
10 9 8 8 8 6 6 7 5 5 5 4 4 4 4 3 3 2 1 1 0 -0 -0 -0 -0 -1 -1 -1 -1 -1 -1 -1
9 9 8 9 8 8 7 5 4 4 3 4 4 4 4 3 3 2 2 1 0 -0 -0 -1 -1 -0 -1 -1 -1 -1 -1 -1
7 8 8 8 8 8 8 5 7 7 7 4 4 4 3 2 2 2 2 1 1 0 -0 -0 -1 -1 -0 -1 -1 -1 -1 -1
7 7 8 9 8 8 7 5 6 7 5 3 4 4 3 3 3 2 2 1 1 1 -0 -0 -0 -1 -0 -1 -1 -1 -1 -1
7 7 8 8 10 10 7 6 6 7 4 4 4 3 3 3 2 2 1 1 1 0 -0 -0 -0 -0 -0 -1 -1 -1 -1 -2
8 8 8 9 12 8 6 6 7 6 4 5 4 3 3 2 2 1 1 1 1 0 0 -0 -0 -0 -0 -1 -1 -1 -1 -1
10 7 8 9 11 8 6 7 7 7 5 5 5 4 3 2 2 1 1 1 1 0 0 0 -0 -0 -0 -1 -1 -1 -1 -1
11 9 9 10 10 8 7 7 7 6 4 5 5 4 3 2 1 1 1 1 1 1 0 -0 0 -0 -0 -0 -0 -1 -1 -1
9 8 9 10 10 9 7 7 7 7 5 6 5 4 3 2 2 2 1 1 1 1 1 1 1 1 1 1 1 0 -0 -1
9 9 9 10 11 9 7 7 6 6 6 6 5 5 4 3 2 2 2 1 1 1 1 1 1 1 1 1 0 0 -0 -0
11 9 9 10 11 10 8 7 5 5 4 5 6 6 5 4 3 2 2 2 1 1 1 0 0 0 0 0 1 1 1 2
11 10 13 10 14 11 9 8 6 5 6 6 5 5 4 4 3 3 2 1 1 1 1 0 -0 1 1 2 2 1 1 2

GFSFLT1_con_lsi_174.txt.gz
Lid_Strength_Index
7 8 9 9 6 5 5 5 5 5 4 4 5 3 3 1 -0 -0 -0 -1 -1 -1 -1 -1 -1 -1 -1 -1 -1 -1 -1 -1
8 9 7 6 5 4 4 4 4 4 6 4 2 3 1 0 -0 0 -0 -1 -1 -1 -1 -1 -1 -1 -1 -1 -1 -1 -1 -1
10 9 7 5 4 4 5 5 4 4 6 5 3 1 1 0 -0 0 -0 -1 -1 -1 -1 -1 -1 -1 -1 -1 -1 -1 -1 -1
11 9 7 6 4 4 5 4 4 5 5 5 2 2 1 0 0 -0 -0 -1 -1 -1 -1 -1 -1 -1 -1 -1 -1 -1 -1 -1
9 9 8 6 4 5 5 4 4 4 6 5 3 1 1 0 -0 -0 -1 -1 -1 -1 -1 -1 -1 -1 -1 -1 -1 -1 -1 -1
9 9 9 6 6 4 4 5 2 3 6 5 4 1 1 0 0 0 -0 -0 -1 -1 -1 -2 -2 -1 -1 -1 -1 -1 -1 -2
9 9 8 5 6 4 3 5 4 3 3 3 2 1 1 1 1 1 0 -0 -1 -1 -1 -1 -1 -1 -1 -1 -1 -1 -1 -1
7 6 7 6 6 6 5 6 6 4 3 2 2 2 3 3 2 2 1 0 -0 -1 -1 -1 -1 -2 -2 -2 -2 -2 -2 -2
7 6 7 7 6 5 5 5 6 6 4 3 3 3 3 3 2 2 1 0 -0 -1 -1 -1 -1 -1 -1 -1 -1 -2 -2 -2
6 6 7 8 6 6 5 4 3 3 2 3 4 4 3 3 2 2 1 1 -0 -1 -1 -1 -1 -1 -1 -1 -1 -1 -2 -2
4 6 6 7 7 7 6 4 3 5 3 3 3 3 2 2 2 1 1 1 0 -0 -0 -1 -1 -1 -1 -1 -1 -1 -1 -2
5 5 5 7 7 6 6 4 4 3 5 3 3 3 3 2 2 2 1 1 0 -0 -1 -1 -1 -1 -1 -1 -1 -1 -1 -2
6 5 6 6 8 8 5 4 4 3 4 3 3 3 3 2 2 2 1 1 0 0 -0 -0 -1 -1 -1 -1 -1 -1 -1 -2
6 6 5 6 10 7 5 5 5 4 4 3 3 3 2 2 2 1 1 1 0 0 -0 -0 -0 -0 -1 -1 -1 -1 -1 -2
8 5 6 6 9 7 5 5 5 4 4 3 3 3 2 2 1 1 1 1 1 0 0 0 -0 -0 -1 -1 -1 -1 -1 -1
9 7 6 7 8 7 6 6 5 5 4 3 4 4 2 2 1 1 1 1 1 0 0 0 0 -0 -0 -0 -1 -1 -1 -1
8 6 7 8 8 7 6 6 6 5 4 4 4 3 2 2 1 1 1 1 1 1 1 0 1 1 1 1 0 -0 -1 -1
8 6 7 7 8 7 6 6 5 5 4 4 4 4 3 2 2 2 1 1 1 1 0 0 0 0 0 0 0 -0 -1 -1
9 7 7 7 9 9 7 5 5 5 3 3 4 5 4 3 3 2 2 1 1 1 0 -0 -0 0 0 0 0 1 1 0
12 9 11 7 12 9 8 7 6 5 4 4 4 4 4 3 3 2 2 1 1 0 0 -0 -0 0 1 2 2 1 1 0